"2010-04-24 00:00:00",52300,11.43,30,3.524,1.163,10.33,102.1842,4.874,6.243,66.54,0,109.9,13.48,5.64,352.0
"2010-04-24 00:00:30",52301,13.69,32.92,4.828,1.075,10.42,102.1724,4.843,6.22,66.13,0,109.9,13.48,5.61,354.9
"2010-04-24 00:01:00",52302,12.13,31.21,4.199,1.12,10.65,102.171,4.84,6.213,65.69,0,109.8,13.48,5.61,353.2
"2010-04-24 00:01:30",52303,9.66,27.34,4.203,1.137,10.36,102.171,4.84,6.207,65.93,0,109.9,13.48,5.61,349.3
"2010-04-24 00:02:00",52304,10.41,27.89,4.444,1.568,10.12,102.171,4.84,6.181,66.01,0,109.9,13.48,5.61,349.9
"2010-04-24 00:02:30",52305,11.57,30.17,3.265,1.243,9.77,102.171,4.84,6.172,66.59,0,109.9,13.48,5.61,352.2
"2010-04-24 00:03:00",52306,9.22,22.6,6.848,1.583,9.12,102.171,4.84,6.165,66.89,0,109.9,13.48,5.61,344.6
"2010-04-24 00:03:30",52307,9.27,17.99,10.87,2.57,8.32,102.171,4.84,6.057,66.94,0,109.9,13.48,5.61,340.0
"2010-04-24 00:04:00",52308,7.678,18.7,8.15,1.911,7.686,102.171,4.84,6.003,66.87,0,109.9,13.48,5.61,340.7
"2010-04-24 00:04:30",52309,8.73,20.93,5.656,1.285,8.9,102.171,4.84,6.109,67.21,0,109.9,13.48,5.61,342.9
"2010-04-24 00:05:00",52310,8.98,23.78,5.428,1.563,9.15,102.1698,4.837,6.113,67.39,0,109.8,13.48,5.61,345.8
"2010-04-24 00:05:30",52311,11.09,28.89,3.35,1.228,10.56,102.1662,4.827,6.159,67.37,0,109.9,13.48,5.60,350.9
"2010-04-24 00:06:00",52312,12.29,28.34,4.154,1.875,10.76,102.1602,4.812,6.129,66.94,0,109.9,13.48,5.58,350.3
"2010-04-24 00:06:30",52313,13.34,29.89,3.18,0.811,10.63,102.1599,4.812,6.151,66.42,0,109.9,13.48,5.58,351.9
"2010-04-24 00:07:00",52314,13.07,29.13,4.017,1.145,10.53,102.1611,4.814,6.129,65.89,0,109.9,13.48,5.58,351.1
"2010-04-24 00:07:30",52315,14.43,31.78,3.549,0.736,10.57,102.1639,4.822,6.141,65.74,0,109.9,13.48,5.59,353.8
"2010-04-24 00:08:00",52316,14.27,31.77,3.86,0.751,10.66,102.1679,4.832,6.126,65.83,0,109.9,13.48,5.60,353.8
"2010-04-24 00:08:30",52317,14.31,33.45,3.651,0.77,10.64,102.171,4.84,6.128,65.94,0,109.9,13.48,5.61,355.5
"2010-04-24 00:09:00",52318,14.13,31.58,2.677,0.567,10.71,102.171,4.84,6.121,66.69,0,109.9,13.47,5.61,353.6
"2010-04-24 00:09:30",52319,14.68,28.95,4.969,0.871,10.82,102.171,4.84,6.139,67.33,0,109.9,13.47,5.61,351.0
"2010-04-24 00:10:00",52320,12.81,29.18,4.515,0.886,10.62,102.171,4.84,6.149,67.39,0,109.9,13.47,5.61,351.2
"2010-04-24 00:10:30",52321,14.19,29.71,4.189,0.816,10.63,102.171,4.84,6.137,67.93,0,109.9,13.47,5.61,351.7
"2010-04-24 00:11:00",52322,13.36,29.33,3.682,1.241,10.74,102.171,4.84,6.15,67.99,0,109.9,13.47,5.61,351.3
"2010-04-24 00:11:30",52323,13.37,29.52,4.744,0.867,10.59,102.171,4.84,6.165,68.04,0,109.9,13.47,5.61,351.5
"2010-04-24 00:12:00",52324,12.17,25.34,6.012,1.511,10.63,102.1712,4.84,6.176,68.18,0,109.9,13.47,5.61,347.3
"2010-04-24 00:12:30",52325,10.59,25.85,3.861,1.39,10.29,102.1724,4.843,6.173,68.01,0,109.9,13.48,5.61,347.9
"2010-04-24 00:13:00",52326,10.85,26.72,4.33,1.693,10.25,102.1735,4.846,6.174,68.47,0,109.9,13.48,5.62,348.7
"2010-04-24 00:13:30",52327,11.72,26.52,5.857,1.356,10.3,102.1786,4.859,6.167,67.85,0,109.9,13.48,5.63,348.5
"2010-04-24 00:14:00",52328,11.51,26.7,4.674,1.104,10.17,102.1792,4.861,6.181,67.76,0,109.8,13.48,5.63,348.7
"2010-04-24 00:14:30",52329,9.36,22.51,4.754,1.547,9.22,102.1834,4.872,6.14,67.9,0,109.8,13.48,5.64,344.5
"2010-04-24 00:15:00",52330,9.21,12.37,6.515,1.119,6.985,102.1831,4.871,6.065,67.79,0,109.9,13.48,5.64,334.4
"2010-04-24 00:15:30",52331,9.24,19.01,7.203,1.699,7.445,102.1851,4.876,5.921,67.32,0,109.9,13.48,5.64,341.0
"2010-04-24 00:16:00",52332,9.74,12.58,7.406,1.402,9.53,102.1857,4.877,6.122,67.89,0,109.9,13.48,5.65,334.6
"2010-04-24 00:16:30",52333,8.85,19.71,5.739,1.156,10.52,102.1848,4.875,6.191,67.95,0,109.9,13.48,5.64,341.7
"2010-04-24 00:17:00",52334,9.93,20.16,3.797,1.326,10.52,102.1845,4.874,6.174,67.89,0,109.9,13.48,5.64,342.2
"2010-04-24 00:17:30",52335,10.57,19.99,6.745,1.162,10.31,102.1823,4.869,6.184,67.89,0,109.9,13.48,5.64,342.0
"2010-04-24 00:18:00",52336,9.38,16.34,6.268,1.211,8.7,102.1825,4.869,6.101,67.68,0,109.9,13.48,5.64,338.3
"2010-04-24 00:18:30",52337,9.2,10.89,8.9,1.385,8.41,102.1831,4.871,6.072,66.79,0,109.9,13.48,5.64,332.9
"2010-04-24 00:19:00",52338,9.84,10.66,8.73,2.624,8.02,102.1825,4.869,5.997,66.54,0,109.9,13.48,5.64,332.7
"2010-04-24 00:19:30",52339,9.7,18.66,6.213,2.559,9.26,102.1865,4.879,6.066,66.78,0,109.9,13.48,5.65,340.7
"2010-04-24 00:20:00",52340,7.801,12.66,8.24,1.426,9.3,102.1871,4.881,6.144,67.84,0,109.8,13.49,5.65,334.7
"2010-04-24 00:20:30",52341,7.781,15.83,6.311,1.1,9.6,102.1857,4.877,6.09,68.26,0,109.9,13.49,5.65,337.8
"2010-04-24 00:21:00",52342,7.514,14.27,7.341,1.132,8.76,102.1825,4.869,6.126,69.22,0,109.8,13.49,5.64,336.3
"2010-04-24 00:21:30",52343,9.06,12.84,6.697,1.281,9.17,102.1794,4.861,6.083,69.48,0,109.9,13.49,5.63,334.8
"2010-04-24 00:22:00",52344,9.42,4.174,6.25,1.982,8.76,102.1724,4.843,6.11,69.18,0,109.9,13.49,5.61,326.2
"2010-04-24 00:22:30",52345,8.41,7.792,8.57,0.958,9.12,102.171,4.84,6.116,69.56,0,109.9,13.49,5.61,329.8
"2010-04-24 00:23:00",52346,9.39,5.554,7.852,1.775,8.68,102.171,4.84,6.101,70.65,0,109.7,13.49,5.61,327.6
"2010-04-24 00:23:30",52347,12.36,3.381,5.755,1.897,10.02,102.171,4.84,6.164,71.04,0,109.9,13.49,5.61,325.4
"2010-04-24 00:24:00",52348,11.14,5.547,4.485,1.65,9.94,102.171,4.84,6.131,71.38,0,109.9,13.48,5.61,327.5
"2010-04-24 00:24:30",52349,9.14,6.398,5.832,1.895,9.43,102.165,4.825,6.094,71.89,0,109.9,13.48,5.59,328.4
"2010-04-24 00:25:00",52350,8.13,5.024,7.185,1.45,8.06,102.1526,4.793,6.061,71.75,0,109.9,13.48,5.56,327.0
"2010-04-24 00:25:30",52351,8.58,9.74,5.209,0.961,8.76,102.1427,4.768,6.014,71.59,0,109.9,13.48,5.54,331.7
"2010-04-24 00:26:00",52352,7.929,9.41,6.535,1.076,7.998,102.1367,4.752,5.948,71.43,0,109.9,13.48,5.52,331.4
"2010-04-24 00:26:30",52353,7.797,14.09,7.476,1.536,8.31,102.1271,4.728,6.011,71.46,0,109.9,13.48,5.50,336.1
"2010-04-24 00:27:00",52354,9.36,14.89,4.219,1.236,9.86,102.1124,4.69,6.034,71.69,0,109.9,13.48,5.46,336.9
"2010-04-24 00:27:30",52355,8.71,13.04,4.595,0.984,9.59,102.1031,4.666,6,71.55,0,109.9,13.48,5.43,335.0
"2010-04-24 00:28:00",52356,8.6,8.16,6.869,1.158,8.28,102.0955,4.647,5.953,71.44,0,109.8,13.48,5.42,330.2
"2010-04-24 00:28:30",52357,9.78,8.94,5.703,1.392,9.25,102.0771,4.6,6.024,70.85,0,109.9,13.48,5.37,330.9
"2010-04-24 00:29:00",52358,8.48,8.19,6.244,1.222,8.26,102.0675,4.576,5.819,70.36,0,109.9,13.48,5.34,330.2
"2010-04-24 00:29:30",52359,8.86,9.24,5.581,1.267,8.53,102.0452,4.519,5.846,70.41,0,109.8,13.49,5.29,331.2
"2010-04-24 00:30:00",52360,9.8,6.382,4.846,1.791,8.16,102.0353,4.493,5.867,70.6,0,109.9,13.49,5.26,328.4
"2010-04-24 00:30:30",52361,10.18,4.975,6.862,1.614,7.786,102.0189,4.451,5.772,70.56,0,109.9,13.49,5.22,327.0
"2010-04-24 00:31:00",52362,9.59,9.01,6.697,1.036,8.64,102.0014,4.407,5.772,70.75,0,109.8,13.49,5.17,331.0
"2010-04-24 00:31:30",52363,10.98,14.5,3.034,0.944,9.6,101.9878,4.372,5.788,71.12,0,109.8,13.49,5.14,336.5
"2010-04-24 00:32:00",52364,10,12.52,4.479,0.983,9.57,101.9694,4.325,5.784,71.33,0,109.8,13.49,5.09,334.5
"2010-04-24 00:32:30",52365,10.65,12.98,6.283,1.547,9.39,101.9584,4.297,5.747,71.5,0,109.9,13.49,5.06,335.0
"2010-04-24 00:33:00",52366,11.98,9.61,5.388,1.9,9.41,101.9414,4.254,5.708,71.55,0,109.9,13.49,5.02,331.6
"2010-04-24 00:33:30",52367,11.69,7.295,5.434,1.22,9.33,101.9321,4.23,5.658,71.96,0,109.9,13.49,5.00,329.3
"2010-04-24 00:34:00",52368,10.19,11.01,6.364,1.662,9.25,101.9115,4.177,5.641,72.26,0,109.8,13.49,4.94,333.0
"2010-04-24 00:34:30",52369,13.33,5.05,3.364,1.396,9.15,101.8996,4.147,5.59,72.53,0,109.8,13.49,4.91,327.0
"2010-04-24 00:35:00",52370,10.36,11.4,3.514,0.87,9.28,101.8925,4.129,5.558,72.86,0,109.8,13.49,4.90,333.4
"2010-04-24 00:35:30",52371,11.87,14.33,6.632,1.848,9.21,101.8795,4.096,5.53,72.76,0,109.8,13.49,4.86,336.3
"2010-04-24 00:36:00",52372,13.17,5.839,4.29,1.689,9.24,101.8662,4.062,5.508,72.89,0,109.8,13.49,4.83,327.8
"2010-04-24 00:36:30",52373,12.02,9.25,5.916,1.711,9.39,101.8628,4.053,5.454,73.27,0,109.8,13.49,4.82,331.2
"2010-04-24 00:37:00",52374,11.39,11.52,3.564,1.151,9.31,101.8479,4.015,5.433,73.16,0,109.8,13.49,4.78,333.5
"2010-04-24 00:37:30",52375,10.44,13.79,6.943,0.92,9.32,101.834,3.979,5.444,73.11,0,109.8,13.49,4.75,335.8
"2010-04-24 00:38:00",52376,10.33,16.89,4.767,1.266,8.98,101.8317,3.974,5.38,73.25,0,109.8,13.49,4.74,338.9
"2010-04-24 00:38:30",52377,10.09,13.91,6.684,1.081,9.06,101.8317,3.974,5.336,73.42,0,109.8,13.49,4.74,335.9
"2010-04-24 00:39:00",52378,9.08,19.68,5.207,1.17,8.76,101.8261,3.959,5.34,73.7,0,109.8,13.49,4.73,341.7
"2010-04-24 00:39:30",52379,9.59,11.39,7.457,1.453,7.745,101.8111,3.921,5.257,73.8,0,109.8,13.49,4.69,333.4
"2010-04-24 00:40:00",52380,7.727,15.27,7.039,1.684,6.289,101.7992,3.891,5.144,73.73,0,109.8,13.49,4.66,337.3
"2010-04-24 00:40:30",52381,8.65,11.51,4.796,1.137,7.305,101.7981,3.888,5.191,73.55,0,109.8,13.49,4.65,333.5
"2010-04-24 00:41:00",52382,9.22,13.16,4.054,0.992,9.51,101.7978,3.887,5.231,73.43,0,109.8,13.49,4.65,335.2
"2010-04-24 00:41:30",52383,8.91,14,5.321,0.971,9.61,101.7978,3.887,5.26,73.98,0,109.8,13.49,4.65,336.0
"2010-04-24 00:42:00",52384,8.95,13.45,4.236,0.924,9.44,101.7925,3.873,5.239,74.35,0,109.8,13.49,4.64,335.5
"2010-04-24 00:42:30",52385,10.54,7.796,5.819,2.096,9,101.7783,3.837,5.231,74.7,0,109.8,13.49,4.60,329.8
"2010-04-24 00:43:00",52386,10.53,5.7,4.1,2.164,8.81,101.7665,3.807,5.207,74.97,0,109.8,13.49,4.57,327.7
"2010-04-24 00:43:30",52387,10.6,6.066,5.089,1.539,9,101.7642,3.801,5.199,75.2,0,109.8,13.49,4.57,328.1
"2010-04-24 00:44:00",52388,10.21,7.176,3.446,1.565,8.52,101.7642,3.801,5.184,75.63,0,109.8,13.49,4.57,329.2
"2010-04-24 00:44:30",52389,11.09,5.274,4.193,1.092,8.56,101.7662,3.806,5.166,75.76,0,109.8,13.49,4.57,327.3
"2010-04-24 00:45:00",52390,10.09,7.166,4.294,1.329,8.62,101.7694,3.814,5.175,75.72,0,109.8,13.49,4.58,329.2
"2010-04-24 00:45:30",52391,11.06,6.227,4.037,1.404,8.4,101.7615,3.794,5.143,75.54,0,109.8,13.49,4.56,328.2
"2010-04-24 00:46:00",52392,9.81,5.714,4.199,1.867,7.488,101.7541,3.775,5.062,75.43,0,109.8,13.49,4.54,327.7
"2010-04-24 00:46:30",52393,9.14,2.433,7.594,0.88,6.533,101.7513,3.768,5.013,75.19,0,109.8,13.49,4.53,324.4
"2010-04-24 00:47:00",52394,9.95,5.764,5.616,2.27,7.754,101.7391,3.737,4.949,75.03,0,109.8,13.49,4.50,327.8
"2010-04-24 00:47:30",52395,9.77,12.27,4.313,1.056,9.45,101.7372,3.732,5.095,74.95,0,109.8,13.5,4.50,334.3
"2010-04-24 00:48:00",52396,10.97,12.51,4.513,1.012,9.68,101.7386,3.736,5.059,74.6,0,109.8,13.5,4.50,334.5
"2010-04-24 00:48:30",52397,9.78,14.37,5.396,1.259,9.28,101.7383,3.735,5.078,74.72,0,109.8,13.5,4.50,336.4
"2010-04-24 00:49:00",52398,10.78,13.98,5.673,1.644,9.16,101.738,3.734,5.051,74.92,0,109.8,13.5,4.50,336.0
"2010-04-24 00:49:30",52399,10.23,11.5,4.325,1.34,8.94,101.731,3.716,5.052,74.97,0,109.8,13.5,4.48,333.5
"2010-04-24 00:50:00",52400,10.7,15.11,5.554,1.429,8.93,101.7225,3.695,5.038,75.17,0,109.8,13.5,4.46,337.1
"2010-04-24 00:50:30",52401,9.28,14.53,4.463,0.892,8.89,101.7127,3.67,5.015,74.87,0,109.8,13.5,4.43,336.5
"2010-04-24 00:51:00",52402,9.83,12.38,6.133,1.633,8.92,101.7107,3.665,5.011,74.9,0,109.7,13.5,4.43,334.4
"2010-04-24 00:51:30",52403,12.3,7.847,3.47,1.587,8.67,101.7099,3.662,4.983,75,0,109.8,13.5,4.43,329.8
"2010-04-24 00:52:00",52404,11.37,9.06,3.675,1.098,8.91,101.7113,3.666,4.975,74.99,0,109.8,13.5,4.43,331.1
"2010-04-24 00:52:30",52405,10.97,8.91,4.239,1.176,8.64,101.7105,3.664,4.966,74.76,0,109.8,13.5,4.43,330.9
"2010-04-24 00:53:00",52406,15.28,3.715,3.937,1.992,8.71,101.7006,3.639,4.957,74.73,0,109.8,13.5,4.40,325.7
"2010-04-24 00:53:30",52407,12.89,6.434,4.574,1.403,8.87,101.6882,3.607,4.948,74.51,0,109.8,13.5,4.37,328.4
"2010-04-24 00:54:00",52408,10.34,9.2,6.77,2.276,9.03,101.6805,3.587,4.934,74.53,0,109.8,13.5,4.35,331.2
"2010-04-24 00:54:30",52409,14.1,1.958,3.983,1.558,8.97,101.6825,3.593,4.916,74.95,0,109.8,13.5,4.36,324.0
"2010-04-24 00:55:00",52410,12.01,4.96,4.036,1.114,9.05,101.6811,3.589,4.921,75.32,0,109.8,13.5,4.35,327.0
"2010-04-24 00:55:30",52411,12.32,6.49,6.646,2.148,9.06,101.6805,3.588,4.922,75.59,0,109.8,13.5,4.35,328.5
"2010-04-24 00:56:00",52412,13.1,3.754,5.28,2.978,9.08,101.6803,3.587,4.919,75.7,0,109.8,13.5,4.35,325.8
"2010-04-24 00:56:30",52413,12.82,4.721,4.425,1.433,9.14,101.6803,3.587,4.891,76.07,0,109.8,13.49,4.35,326.7
"2010-04-24 00:57:00",52414,13.65,3.188,4.769,1.973,9.16,101.6811,3.589,4.898,76.1,0,109.8,13.49,4.35,325.2
"2010-04-24 00:57:30",52415,14.49,4.244,4.379,1.541,9.27,101.6817,3.591,4.895,75.95,0,109.8,13.49,4.36,326.2
"2010-04-24 00:58:00",52416,13.66,4.761,4.138,1.83,9.34,101.6805,3.588,4.874,75.51,0,109.8,13.49,4.35,326.8
"2010-04-24 00:58:30",52417,14.57,2.762,5.182,1.413,9.39,101.6811,3.589,4.866,75.65,0,109.8,13.49,4.35,324.8
"2010-04-24 00:59:00",52418,15.66,2.591,4.233,1.872,9.51,101.6808,3.588,4.875,75.52,0,109.8,13.49,4.35,324.6
"2010-04-24 00:59:30",52419,14.17,5.04,3.614,1.958,9.59,101.6758,3.575,4.853,75.54,0,109.8,13.49,4.34,327.0
"2010-04-24 01:00:00",52420,14.31,3.849,4.834,2.149,9.5,101.6749,3.573,4.857,75.45,0,109.8,13.49,4.34,325.8
"2010-04-24 01:00:30",52421,10.75,9.37,5.96,2.589,9.69,101.6695,3.56,4.856,75.6,0,109.8,13.49,4.32,331.4
"2010-04-24 01:01:00",52422,13.76,3.662,4.191,1.749,9.34,101.6688,3.558,4.831,75.71,0,109.8,13.49,4.32,325.7
"2010-04-24 01:01:30",52423,13.15,9.37,5.643,1.922,9.46,101.6651,3.548,4.836,75.8,0,109.8,13.49,4.31,331.4
"2010-04-24 01:02:00",52424,13.6,5.608,4.144,1.999,9.34,101.6586,3.532,4.841,75.58,0,109.8,13.5,4.30,327.6
"2010-04-24 01:02:30",52425,12.86,5.712,5.804,1.758,9.4,101.6555,3.524,4.814,75.84,0,109.8,13.5,4.29,327.7
"2010-04-24 01:03:00",52426,11.52,7.985,5.198,2.23,9.4,101.6561,3.525,4.813,76.06,0,109.8,13.5,4.29,330.0
"2010-04-24 01:03:30",52427,11.61,8.23,4.826,1.603,9.25,101.6547,3.522,4.809,76,0,109.8,13.5,4.29,330.2
"2010-04-24 01:04:00",52428,13.37,1.884,5.098,1.451,9.09,101.6549,3.522,4.81,76.03,0,109.8,13.5,4.29,323.9
"2010-04-24 01:04:30",52429,13.08,3.384,5.799,2.129,9.24,101.6544,3.521,4.825,76.27,0,109.8,13.5,4.29,325.4
"2010-04-24 01:05:00",52430,11.95,4.377,3.878,1.636,9.24,101.6552,3.523,4.807,76.31,0,109.8,13.5,4.29,326.4
"2010-04-24 01:05:30",52431,9.66,9.54,6.2,1.96,9.2,101.6547,3.522,4.808,76.38,0,109.8,13.5,4.29,331.5
"2010-04-24 01:06:00",52432,11.38,5.402,5.043,1.982,8.97,101.6555,3.524,4.822,76.32,0,109.8,13.5,4.29,327.4
"2010-04-24 01:06:30",52433,12.17,5.219,4.203,1.798,9.01,101.6547,3.522,4.798,76.59,0,109.8,13.5,4.29,327.2
"2010-04-24 01:07:00",52434,13.4,2.267,3.553,0.978,9.15,101.6544,3.521,4.809,76.54,0,109.8,13.5,4.29,324.3
"2010-04-24 01:07:30",52435,10.97,5.477,3.421,1.355,8.94,101.6547,3.522,4.8,76.55,0,109.8,13.5,4.29,327.5
"2010-04-24 01:08:00",52436,11.99,5.177,4.555,1.545,9.05,101.6544,3.521,4.817,76.66,0,109.8,13.5,4.29,327.2
"2010-04-24 01:08:30",52437,11.65,5.746,7.102,2.456,8.96,101.6555,3.524,4.797,76.03,0,109.8,13.5,4.29,327.7
"2010-04-24 01:09:00",52438,13.2,4.395,4.583,2.331,9.2,101.6575,3.529,4.786,75.87,0,109.8,13.5,4.29,326.4
"2010-04-24 01:09:30",52439,12.96,0.884,3.493,1.113,8.8,101.6567,3.527,4.801,75.96,0,109.8,13.5,4.29,322.9
"2010-04-24 01:10:00",52440,11.81,3.302,4.455,1.688,8.82,101.6567,3.527,4.805,76.64,0,109.8,13.5,4.29,325.3
"2010-04-24 01:10:30",52441,11.73,0.592,3.974,1.44,8.65,101.6561,3.525,4.815,77.13,0,109.8,13.5,4.29,322.6
"2010-04-24 01:11:00",52442,11.8,5.489,4.247,2.103,8.95,101.6552,3.523,4.827,77.3,0,109.8,13.5,4.29,327.5
"2010-04-24 01:11:30",52443,10.04,8.63,5.782,1.857,8.93,101.6572,3.528,4.821,76.91,0,109.8,13.5,4.29,330.6
"2010-04-24 01:12:00",52444,11.29,4.703,4.747,1.428,8.78,101.6575,3.529,4.803,76.53,0,109.8,13.5,4.29,326.7
"2010-04-24 01:12:30",52445,11.45,4.454,4.229,1.308,8.73,101.6572,3.528,4.813,76.69,0,109.8,13.5,4.29,326.5
"2010-04-24 01:13:00",52446,10.69,7.161,6.27,2.288,8.46,101.6564,3.526,4.793,76.89,0,109.8,13.49,4.29,329.2
"2010-04-24 01:13:30",52447,11.88,3.294,2.85,1.533,8.39,101.6578,3.53,4.814,76.62,0,109.8,13.49,4.29,325.3
"2010-04-24 01:14:00",52448,13.35,1.851,4.798,1.223,8.39,101.657,3.527,4.801,76.71,0,109.8,13.49,4.29,323.9
"2010-04-24 01:14:30",52449,11.72,11.42,4.93,1.859,8.91,101.6564,3.526,4.809,76.62,0,109.8,13.49,4.29,333.4
"2010-04-24 01:15:00",52450,11.74,7.832,4.069,1.918,8.75,101.6587,3.532,4.796,76.24,0,109.8,13.49,4.30,329.8
"2010-04-24 01:15:30",52451,11.18,9.56,4.16,1.722,8.82,101.659,3.533,4.796,76.02,0,109.8,13.49,4.30,331.6
"2010-04-24 01:16:00",52452,12.3,5.366,4.512,2.48,8.76,101.6604,3.536,4.791,76.38,0,109.8,13.49,4.30,327.4
"2010-04-24 01:16:30",52453,12.67,4.419,4.687,2.002,8.89,101.661,3.538,4.82,76.81,0,109.8,13.49,4.30,326.4
"2010-04-24 01:17:00",52454,14.79,2.415,2.818,1.511,8.88,101.6584,3.531,4.784,77.02,0,109.8,13.49,4.30,324.4
"2010-04-24 01:17:30",52455,14.53,2.149,4.842,2.145,8.94,101.6545,3.521,4.791,77.02,0,109.8,13.49,4.29,324.1
"2010-04-24 01:18:00",52456,12.72,6.843,9.15,3.509,8.94,101.6469,3.502,4.778,77.49,0,109.8,13.5,4.27,328.8
"2010-04-24 01:18:30",52457,11.89,9.31,8.03,2.733,8.87,101.6421,3.489,4.79,77.67,0,109.8,13.5,4.25,331.3
"2010-04-24 01:19:00",52458,13.52,2.902,8.87,2.396,8.99,101.6302,3.459,4.774,77.73,0,109.8,13.5,4.22,324.9
"2010-04-24 01:19:30",52459,13.61,6.463,4.991,3.376,8.75,101.6282,3.454,4.767,78.08,0,109.8,13.5,4.22,328.5
"2010-04-24 01:20:00",52460,12.78,10.15,3.297,1.621,9,101.6217,3.437,4.753,78.02,0,109.8,13.5,4.20,332.1
"2010-04-24 01:20:30",52461,13.4,9.49,3.676,1.399,9.1,101.6002,3.383,4.735,77.85,0,109.8,13.5,4.15,331.5
"2010-04-24 01:21:00",52462,13.63,8.81,3.277,1.942,9.12,101.5948,3.369,4.705,78.24,0,109.8,13.5,4.13,330.8
"2010-04-24 01:21:30",52463,13.55,10.03,3.717,1.743,8.94,101.5759,3.32,4.665,78.78,0,109.8,13.5,4.08,332.0
"2010-04-24 01:22:00",52464,11.98,12.18,5.423,2.206,9.05,101.5603,3.281,4.659,79.13,0,109.8,13.5,4.04,334.2
"2010-04-24 01:22:30",52465,11.33,14.05,4.422,1.669,9.41,101.5388,3.226,4.613,79.09,0,109.8,13.5,3.99,336.0
"2010-04-24 01:23:00",52466,12.33,13.98,5.104,1.547,9.02,101.527,3.196,4.562,79.02,0,109.8,13.5,3.96,336.0
"2010-04-24 01:23:30",52467,12.41,12,4.575,1.446,9.09,101.5244,3.189,4.545,79.96,0,109.8,13.5,3.95,334.0
"2010-04-24 01:24:00",52468,13.18,11.19,4.118,1.309,9.02,101.5021,3.132,4.521,80.1,0,109.8,13.5,3.90,333.2
"2010-04-24 01:24:30",52469,14.48,9.14,4.117,1.222,8.88,101.493,3.109,4.494,80.8,0,109.8,13.5,3.87,331.1
"2010-04-24 01:25:00",52470,14.19,11.77,3.664,1.272,9.08,101.4744,3.061,4.453,81.2,0,109.8,13.5,3.82,333.8
"2010-04-24 01:25:30",52471,13.39,12.69,4.101,0.795,9.26,101.4591,3.022,4.428,81.2,0,109.8,13.5,3.78,334.7
"2010-04-24 01:26:00",52472,13.53,14.02,3.749,1.132,9.14,101.4421,2.979,4.364,81.1,0,109.8,13.5,3.74,336.0
"2010-04-24 01:26:30",52473,13.63,13.61,3.894,2.354,8.8,101.4252,2.936,4.315,81.3,0,109.8,13.5,3.70,335.6
"2010-04-24 01:27:00",52474,13.32,15.45,3.353,1.29,9.12,101.4139,2.907,4.297,81.7,0,109.8,13.5,3.67,337.5
"2010-04-24 01:27:30",52475,12.69,18.62,4.164,0.954,9.1,101.3912,2.849,4.282,82,0,109.8,13.5,3.61,340.6
"2010-04-24 01:28:00",52476,13.52,17.74,4.521,1.22,9.17,101.3861,2.836,4.222,81.8,0,109.8,13.51,3.60,339.7
"2010-04-24 01:28:30",52477,12.72,18.14,3.894,1.336,9.01,101.37,2.795,4.177,81.7,0,109.8,13.51,3.56,340.1
"2010-04-24 01:29:00",52478,13.6,16.45,4.757,1.451,9.31,101.3573,2.763,4.164,81.4,0,109.7,13.5,3.52,338.5
"2010-04-24 01:29:30",52479,13.2,16.05,3.857,1.137,9.24,101.3548,2.756,4.126,80.9,0,109.8,13.5,3.52,338.0
"2010-04-24 01:30:00",52480,13.39,17.7,4.037,1.177,9.26,101.3409,2.721,4.092,80.1,0,109.8,13.5,3.48,339.7
"2010-04-24 01:30:30",52481,13.89,13.56,3.798,0.967,9.25,101.3288,2.69,4.064,79.66,0,109.8,13.5,3.45,335.6
"2010-04-24 01:31:00",52482,14.91,12.59,3.939,1.914,9.07,101.3234,2.676,4.04,79.88,0,109.8,13.5,3.44,334.6
"2010-04-24 01:31:30",52483,13.37,16.9,5.206,0.901,9.34,101.3234,2.676,4.042,80.4,0,109.8,13.5,3.44,338.9
"2010-04-24 01:32:00",52484,14.09,18.29,4.558,0.896,9.19,101.3234,2.676,4.031,80,0,109.8,13.5,3.44,340.3
"2010-04-24 01:32:30",52485,15.21,19.9,5.787,2.22,9.16,101.3203,2.668,3.983,80.1,0,109.8,13.5,3.43,341.9
"2010-04-24 01:33:00",52486,13.98,18.29,5.314,2.079,9.27,101.3078,2.636,3.977,80.4,0,109.8,13.5,3.40,340.3
"2010-04-24 01:33:30",52487,14.64,18.77,5.452,1.347,9.25,101.2911,2.594,3.955,80.5,0,109.8,13.5,3.35,340.8
"2010-04-24 01:34:00",52488,14.44,19.18,4.189,1.107,9.24,101.2894,2.589,3.959,80.7,0,109.8,13.5,3.35,341.2
"2010-04-24 01:34:30",52489,14.91,21.51,6.434,2.968,9.34,101.2892,2.589,3.948,81,0,109.8,13.51,3.35,343.5
"2010-04-24 01:35:00",52490,15.06,23.75,4.178,2.636,9.19,101.2733,2.548,3.929,81.2,0,109.8,13.51,3.31,345.8
"2010-04-24 01:35:30",52491,15.5,18.16,4.72,2.482,9.21,101.2569,2.506,3.895,81.5,0,109.8,13.51,3.27,340.2
"2010-04-24 01:36:00",52492,14.44,18.54,8.42,1.689,9.31,101.2564,2.505,3.882,82,0,109.8,13.51,3.27,340.5
"2010-04-24 01:36:30",52493,13.17,19.61,4.719,1.846,9.3,101.2507,2.491,3.865,82.4,0,109.8,13.51,3.25,341.6
"2010-04-24 01:37:00",52494,14.28,18.84,6.001,1.863,9.35,101.2298,2.437,3.849,82.6,0,109.7,13.51,3.20,340.8
"2010-04-24 01:37:30",52495,14.01,22.38,6.912,2.101,9.22,101.2264,2.429,3.839,82.8,0,109.8,13.51,3.19,344.4
"2010-04-24 01:38:00",52496,15.98,18.75,6.212,1.676,9.27,101.2157,2.401,3.802,83,0,109.8,13.51,3.16,340.8
"2010-04-24 01:38:30",52497,16,19.07,7.576,2.196,9.3,101.1974,2.354,3.772,83.1,0,109.8,13.51,3.11,341.1
"2010-04-24 01:39:00",52498,14.33,20.83,6.385,2.035,9.23,101.1974,2.354,3.734,83.3,0,109.8,13.51,3.11,342.8
"2010-04-24 01:39:30",52499,15.1,22.25,5.722,2.063,9.28,101.1785,2.306,3.699,83.5,0,109.8,13.51,3.07,344.2
"2010-04-24 01:40:00",52500,16.95,20.76,3.602,1.962,9.3,101.1706,2.286,3.679,83.5,0,109.7,13.51,3.05,342.8
"2010-04-24 01:40:30",52501,18.59,26.61,4.587,1.889,9.29,101.1703,2.285,3.659,83.4,0,109.7,13.51,3.05,348.6
"2010-04-24 01:41:00",52502,18.02,24.84,4.159,2.547,9.5,101.1559,2.249,3.625,83.6,0,109.7,13.51,3.01,346.8
"2010-04-24 01:41:30",52503,12.36,18.4,7.024,2.116,9.42,101.1404,2.209,3.63,83.8,0,109.7,13.51,2.97,340.4
"2010-04-24 01:42:00",52504,11.87,21.1,7.088,3.178,9.09,101.1404,2.209,3.588,84.2,0,109.7,13.51,2.97,343.1
"2010-04-24 01:42:30",52505,13.2,24.5,4.02,2.726,8.86,101.1415,2.212,3.584,84.6,0,109.7,13.51,2.97,346.5
"2010-04-24 01:43:00",52506,13.53,25.23,3.934,2.466,9.03,101.1305,2.184,3.558,84.8,0,109.7,13.52,2.94,347.2
"2010-04-24 01:43:30",52507,15.13,26.26,3.541,1.958,8.98,101.1169,2.149,3.543,84.9,0,109.7,13.52,2.91,348.3
"2010-04-24 01:44:00",52508,12.04,24.66,5.566,3.644,8.76,101.1113,2.135,3.524,84.9,0,109.7,13.52,2.89,346.7
"2010-04-24 01:44:30",52509,16.76,28.16,5.136,2.513,8.78,101.1087,2.128,3.485,84.9,0,109.7,13.52,2.89,350.2
"2010-04-24 01:45:00",52510,17.19,27.34,5.254,2.645,8.93,101.0915,2.084,3.503,85,0,109.7,13.52,2.84,349.3
"2010-04-24 01:45:30",52511,20.42,31.28,3.742,1.605,9.27,101.0796,2.054,3.475,84.9,0,109.7,13.51,2.81,353.3
"2010-04-24 01:46:00",52512,18.09,28.97,4.029,1.722,9.4,101.0796,2.054,3.436,84.6,0,109.7,13.51,2.81,351.0
"2010-04-24 01:46:30",52513,16.1,27.45,4.813,2.816,9.52,101.0726,2.036,3.407,84.5,0,109.7,13.52,2.80,349.5
"2010-04-24 01:47:00",52514,15.69,27.8,3.072,2.989,9.26,101.0602,2.004,3.371,84.7,0,109.7,13.52,2.76,349.8
"2010-04-24 01:47:30",52515,15.58,27.78,4.128,1.641,9.38,101.0531,1.986,3.366,84.8,0,109.7,13.52,2.75,349.8
"2010-04-24 01:48:00",52516,17.43,30.48,3.955,1.517,9.37,101.05,1.978,3.331,84.8,0,109.7,13.52,2.74,352.5
"2010-04-24 01:48:30",52517,18.81,29.89,4.178,2.222,9.57,101.0511,1.981,3.31,85,0,109.7,13.52,2.74,351.9
"2010-04-24 01:49:00",52518,20.08,31.29,4.015,1.238,9.63,101.0367,1.944,3.307,84.8,0,109.7,13.52,2.70,353.3
"2010-04-24 01:49:30",52519,17.51,25.46,5.921,2.76,9.61,101.0189,1.899,3.296,84.5,0,109.7,13.52,2.66,347.5
"2010-04-24 01:50:00",52520,14.84,26.3,5.694,3.015,9.47,101.018,1.897,3.284,84.5,0,109.7,13.52,2.66,348.3
"2010-04-24 01:50:30",52521,16.77,27.66,4.688,2.826,9.38,101.0183,1.898,3.255,84.7,0,109.7,13.52,2.66,349.7
"2010-04-24 01:51:00",52522,19.61,29.58,4.94,1.809,9.59,101.0183,1.898,3.237,84.8,0,109.7,13.52,2.66,351.6
"2010-04-24 01:51:30",52523,19.85,30.35,3.781,1.32,9.72,101.0149,1.889,3.234,84.6,0,109.7,13.52,2.65,352.4